Regional Weather Roundup
Issued by NWS

Home | Current Version | Previous Version | Text Only | Print | Product List | Glossary Off
Versions: 1 2 3 4 5 6 7 8 9 10 11 12 13 14 15 16 17 18 19 20 21 22 23 24 25 26 27 28 29 30 31 32 33 34 35 36 37 38 39 40 41 42 43 44 45 46 47 48 49 50

040
ASUS44 KLIX 230910
RWRLA
LOUISIANA WEATHER ROUNDUP
NATIONAL WEATHER SERVICE NEW ORLEANS LA
400 AM CDT WED APR 23 2014

NOTE: "FAIR" INDICATES FEW OR NO CLOUDS BELOW 12,000 FEET WITH NO
      SIGNIFICANT WEATHER AND/OR OBSTRUCTIONS TO VISIBILITY.
      SKY/WX - SKY CONDITION AND SIGNIFICANT WEATHER.
      TMP - AIR TEMPERATURE.    DP   - DEWPOINT TEMPERATURE.
      RH  - RELATIVE HUMIDITY.  PRES - PRESSURE.
      HX  - HEAT INDEX.         WCI  - WIND CHILL INDEX.

*  THESE STATIONS ARE NOT NWS OR FAA STATIONS AND ARE NOT UNDER
   NWS QUALITY CONTROL.

LAZ040-048-061>063-065-066-069-231000-
SOUTHEAST LOUISIANA

CITY           SKY/WX    TMP DP  RH WIND       PRES   REMARKS
N.O. AUDUBON     N/A     62  62  99 MISG        N/A
N.O. INTL ARPT CLEAR     64  62  93 CALM      29.93S
N.O. LAKEFRONT CLEAR     68  66  93 NW7       29.93S
N.O. DOWNTOWN* FAIR      66  61  82 CALM      29.94R
SLIDELL        CLEAR     58  55  90 CALM      29.93R
BATON ROUGE    CLEAR     59  56  89 CALM      29.94S
BOOTHVILLE     CLEAR     65  64  97 NW3       29.93S FOG
BELLE CHASSE   CLEAR     59  56  89 CALM      29.92S FOG
BOGALUSA*        N/A     58  55  89 CALM      29.95R
GALLIANO*      FOG       57  56  96 CALM      29.93S VSB 1/2
NEW ROADS*     FAIR      59  58  97 CALM      29.94S FOG
GONZALES*      FAIR      59  59 100 CALM      29.93F
HAMMOND*       CLEAR     61  57  88 CALM      29.95S
HOUMA*         FOG       60  58  94 CALM      29.93S VSB 1/4
PORT FOURCHON* MOSUNNY   70  68  94 W3        29.95S

$$

LAZ041-044-053-054-231000-
SOUTHWEST LOUISIANA

CITY           SKY/WX    TMP DP  RH WIND       PRES   REMARKS
LAKE CHARLES   FOG       63  63 100 CALM      29.94R VSB 1/4
LAFAYETTE      CLEAR     60  59  96 CALM      29.94S FOG
PATTERSON        N/A     61  59  94 CALM      29.97R VSB 1/2
SALT POINT       N/A     68  66  93 CALM      29.93S
NEW IBERIA     CLEAR     62  59  90 CALM      29.94S
CHENAULT AIRPK FOG       62  62 100 CALM      29.95R VSB<1/4

$$

LAZ027-028-231000-
CENTRAL LOUISIANA

CITY           SKY/WX    TMP DP  RH WIND       PRES   REMARKS
FORT POLK      CLEAR     59  57  93 CALM      29.94S
ALEXANDRIA INT PTCLDY    58  58 100 CALM      29.93S FOG
ALEXANDRIA     FOG       56  53  90 CALM      29.95R VSB 3/4

$$

LAZ001-002-231000-
NORTHWEST LOUISIANA

CITY           SKY/WX    TMP DP  RH WIND       PRES   REMARKS
SHREVEPORT     PTCLDY    59  57  93 CALM      29.93S
BARKSDALE AFB  CLEAR     60  59  96 S2        29.94R
DTN SHREVEPORT PTCLDY    58  57  97 CALM      29.94R

$$

LAZ014-016-231000-
NORTHEAST LOUISIANA

CITY           SKY/WX    TMP DP  RH WIND       PRES   REMARKS
MONROE         FOG       57  55  94 CALM      29.97R VSB 1/4
TALLULAH       FOG       56  56 100 CALM      29.96R VSB<1/4

$$




USA.gov is the U.S. government's official web portal to all federal, state and local government web resources and services.